|
NORAD ID: 34472 Int'l Code: 1993-036TR
Perigee: 772.8 km
Apogee: 1,303.8 km
Inclination: 74.1 °
Period: 105.8 minutes
Semi major axis: 7409 km
Launch date: June 16, 1993
Source: Commonwealth of Independent States (former USSR) (CIS)
Note: This is SATELLITE DEBRIS
Two Line Element Set (TLE):
1 34472U 93036TR 13142.07247442 .00001762 00000-0 15248-2 0 9248
2 34472 074.0844 012.3851 0358334 107.8937 047.4897 13.61235801211935
Source:
NASA's NSSDC Master Catalog entry for COSMOS 2251 DEB
|